Estación de Contra Coronel

Ultimos registro cada 15 minutos 71
Estación Fecha / Hora Temperatura Humedad Lluvia Velocidad Dirección Radiación Presion
71 Contra Coronel 03-09-2026 17:30 10,3 69,1 0 0,7 191 93,1 1022,7
70 Contra Coronel 03-09-2026 17:15 10,4 70,6 0 0,3 205 103,1 1022,7
69 Contra Coronel 03-09-2026 17:00 10,6 69,9 0 0 112 108,1 1022,6
68 Contra Coronel 03-09-2026 16:45 10,6 69,6 0 0,7 132 146,9 1022,6
67 Contra Coronel 03-09-2026 16:30 10,8 66,8 0 0,3 110 175,6 1022,7
66 Contra Coronel 03-09-2026 16:15 10,5 67,7 0 1 119 204,4 1022,7
65 Contra Coronel 03-09-2026 16:00 10,9 64 0 0,7 70 215,6 1022,7
64 Contra Coronel 03-09-2026 15:45 11,3 60,9 0 0,7 312 244,4 1022,6
63 Contra Coronel 03-09-2026 15:30 11,3 62,8 0 0,7 230 190,6 1022,5
62 Contra Coronel 03-09-2026 15:15 12,3 60,4 0 0,7 181 586,9 1022,4
61 Contra Coronel 03-09-2026 15:00 12,9 61,4 0 1 321 538,1 1022,4
60 Contra Coronel 03-09-2026 14:45 11,6 62,6 0 0,7 187 553,1 1022,6
59 Contra Coronel 03-09-2026 14:30 11,7 60,7 0 0,3 194 326,9 1022,6
58 Contra Coronel 03-09-2026 14:15 10,5 66,3 0 0,3 227 671,9 1022,8
57 Contra Coronel 03-09-2026 14:00 10,7 67,6 0 0,7 268 191,9 1022,9
56 Contra Coronel 03-09-2026 13:45 10,5 67,3 0 0,3 347 213,1 1023,1
55 Contra Coronel 03-09-2026 13:30 10,7 65,4 0 0,7 237 338,1 1023,2
54 Contra Coronel 03-09-2026 13:15 10,4 64,1 0 0,3 289 243,1 1023,3
53 Contra Coronel 03-09-2026 13:00 10,3 66,8 0 0,3 244 278,1 1023,5
52 Contra Coronel 03-09-2026 12:45 10,6 63,1 0 0,3 254 369,4 1023,5
51 Contra Coronel 03-09-2026 12:30 10,1 66,7 0 0,3 28 331,9 1023,6
50 Contra Coronel 03-09-2026 12:15 11 64,6 0 0 244 454,4 1023,7
49 Contra Coronel 03-09-2026 12:00 9 69,9 0 0 164 240,6 1023,6
48 Contra Coronel 03-09-2026 11:45 9,8 66,6 0 0,3 114 328,1 1023,5
47 Contra Coronel 03-09-2026 11:30 8,8 71 0 1 140 298,1 1023,5
46 Contra Coronel 03-09-2026 11:15 9,5 72,7 0 0,7 261 223,1 1023,4
45 Contra Coronel 03-09-2026 11:00 9,3 72,3 0 0,7 202 309,4 1023,4
44 Contra Coronel 03-09-2026 10:45 9,5 75,9 0 0,3 272 344,4 1023,4
43 Contra Coronel 03-09-2026 10:30 8,4 78,9 0 0,7 185 268,1 1023,3
42 Contra Coronel 03-09-2026 10:15 8,8 73,9 0 0,3 248 254,4 1023,2
41 Contra Coronel 03-09-2026 10:00 8,4 75,2 0 0,3 135 288,1 1023,1
40 Contra Coronel 03-09-2026 09:45 7,8 79 0 0,3 142 275,6 1022,9
39 Contra Coronel 03-09-2026 09:30 7,6 81,7 0 0 121 230,6 1022,9
38 Contra Coronel 03-09-2026 09:15 7,6 84,4 0 0 0 278,1 1022,7
37 Contra Coronel 03-09-2026 09:00 6,4 90,4 0 0 343 146,9 1022,6
36 Contra Coronel 03-09-2026 08:45 5,8 92,7 0 0 340 156,9 1022,3
35 Contra Coronel 03-09-2026 08:30 5,4 94,2 0 0,7 351 90,6 1022
34 Contra Coronel 03-09-2026 08:15 5 94,7 0 0 199 85,6 1021,8
33 Contra Coronel 03-09-2026 08:00 4,6 95,9 0 0 199 44,4 1021,6
32 Contra Coronel 03-09-2026 07:45 4,5 95,6 0 0 199 29,4 1021,5
31 Contra Coronel 03-09-2026 07:30 4 96,7 0 0 199 18,1 1021,3
30 Contra Coronel 03-09-2026 07:15 3,6 96,8 0 0 199 3,1 1021,2
29 Contra Coronel 03-09-2026 07:00 3,7 96 0 0 199 0,6 1021
28 Contra Coronel 03-09-2026 06:45 3,8 95,3 0 0 199 0,6 1020,8
27 Contra Coronel 03-09-2026 06:30 3,6 94,2 0 0 199 0,6 1020,5
26 Contra Coronel 03-09-2026 06:15 3,8 93,6 0 0 199 0,6 1020,5
25 Contra Coronel 03-09-2026 06:00 3,9 91,8 0 0 199 0,6 1020,3
24 Contra Coronel 03-09-2026 05:45 3,8 91,3 0 0 199 0,6 1020,1
23 Contra Coronel 03-09-2026 05:30 3,5 92,4 0 0 199 0,6 1019,9
22 Contra Coronel 03-09-2026 05:15 3,6 91,8 0 0 199 0,6 1019,8
21 Contra Coronel 03-09-2026 05:00 3,1 92,1 0 0 195 0,6 1019,5
20 Contra Coronel 03-09-2026 04:45 3 89,7 0 0 184 0,6 1019,3
19 Contra Coronel 03-09-2026 04:30 4,4 81,8 0 0,3 150 0,6 1019,1
18 Contra Coronel 03-09-2026 04:15 4,8 79,7 0 0,7 166 0,6 1019
17 Contra Coronel 03-09-2026 04:00 5,2 78,9 0 0,7 166 0,6 1018,8
16 Contra Coronel 03-09-2026 03:45 5,4 77,6 0 1 181 0,6 1018,8
15 Contra Coronel 03-09-2026 03:30 5 80,5 0 0,7 184 0,6 1018,7
14 Contra Coronel 03-09-2026 03:15 4,5 84,1 0 0,3 188 0,6 1018,6
13 Contra Coronel 03-09-2026 03:00 5,4 80,4 0 0,3 181 0,6 1018,6
12 Contra Coronel 03-09-2026 02:45 5,4 82,6 0 0,7 185 0,6 1018,6
11 Contra Coronel 03-09-2026 02:30 5,6 82,9 0 0 187 0,6 1018,5
10 Contra Coronel 03-09-2026 02:15 6,4 81,3 0 0,3 194 0,6 1018,5
9 Contra Coronel 03-09-2026 02:00 6,9 80,6 0 0 198 0,6 1018,3
8 Contra Coronel 03-09-2026 01:45 7,2 79,3 0 0,7 187 0,6 1018,3
7 Contra Coronel 03-09-2026 01:30 7,2 79,4 0 0,3 183 0,6 1018,1
6 Contra Coronel 03-09-2026 01:15 7,2 82,6 0 0 247 0,6 1018
5 Contra Coronel 03-09-2026 01:00 7,2 85,6 0 0 227 0,6 1017,7
4 Contra Coronel 03-09-2026 00:45 7,4 85,1 0 0 202 0,6 1017,7
3 Contra Coronel 03-09-2026 00:30 7,4 82,7 0 0 206 0,6 1017,6
2 Contra Coronel 03-09-2026 00:15 7,5 84,9 0 0,3 190 0,6 1017,3
1 Contra Coronel 03-09-2026 00:00 7,6 85,1 0 0,3 202 0,6 1017,2